This demonstration page uses our WeatherBlox Daily Observations layout. Learn more.

Left ArrowRight Arrow

34.16533, -84.80231

Hourly Observations for March 17, 2017

Temp ( °F °C ) Dew Point ( °F °C ) Humidity (%) Winds ( mph kmh ) Pressure ( in mb ) Visibility ( mi km ) Precip ( " mm )
12:53 am 00:53 Clear 32 0 23 -5 69 69 Calm 30.35 1028 10 16 0.00 0.00
1:53 am 01:53 Clear 30 -1.1 23 -5 75 75 Calm 30.34 1028 10 16 0.00 0.00
2:53 am 02:53 Clear 30 -1.1 23 -5 75 75 Calm 30.34 1028 10 16 0.00 0.00
3:53 am 03:53 Clear 29 -1.7 24 -4.4 82 82 Calm 30.34 1027 10 16 0.00 0.00
4:53 am 04:53 Mostly Cloudy 30 -1.1 24 -4.4 79 79 Calm 30.34 1027 10 16 0.00 0.00
5:53 am 05:53 Cloudy 33 0.6 26 -3.3 75 75 Calm 30.35 1028 10 16 0.00 0.00
6:53 am 06:53 Cloudy 35 1.7 28 -2.2 76 76 Calm 30.37 1028 10 16 0.00 0.00
7:53 am 07:53 Cloudy 36 2.2 29 -1.7 76 76 NE 3 6 30.39 1029 10 16 0.00 0.00
8:53 am 08:53 Cloudy 39 3.9 28 -2.2 65 65 Calm 30.40 1029 10 16 0.00 0.00
9:18 am 09:18 Cloudy 40 4.4 28 -2.2 63 63 Calm 30.45 1031 10 16 0.00 0.00
9:45 am 09:45 Cloudy 40 4.4 29 -1.7 65 65 ESE 3 6 30.42 1030 10 16 0.00 0.00
9:53 am 09:53 Cloudy 41 5 28 -2.2 60 60 Calm 30.40 1030 10 16 0.00 0.00
10:53 am 10:53 Cloudy 44 6.7 27 -2.8 51 51 VRB 3 6 30.41 1030 10 16 0.00 0.00
11:53 am 11:53 Cloudy 50 10 24 -4.4 36 36 Calm 30.40 1030 10 16 0.00 0.00
12:53 pm 12:53 Cloudy 54 12.2 27 -2.8 35 35 SE 6 9 30.38 1029 10 16 0.00 0.00
1:53 pm 13:53 Cloudy 58 14.4 32 0 38 38 SSW 5 7 30.35 1028 10 16 0.00 0.00
2:53 pm 14:53 Partly Cloudy 63 17.2 34 1.1 34 34 SSE 8 13 30.28 1025 10 16 0.00 0.00
3:53 pm 15:53 Sunny 66 18.9 36 2.2 33 33 VRB 5 7 30.26 1025 10 16 0.00 0.00
4:53 pm 16:53 Mostly Cloudy 69 20.6 40 4.4 35 35 VRB 5 7 30.22 1024 10 16 0.00 0.00
5:53 pm 17:53 Cloudy 68 20 41 5 38 38 VRB 5 7 30.22 1023 10 16 0.00 0.00
6:53 pm 18:53 Cloudy 65 18.3 41 5 42 42 VRB 3 6 30.23 1024 10 16 0.00 0.00
7:53 pm 19:53 Cloudy 65 18.3 41 5 42 42 SSW 3 6 30.23 1024 10 16 0.00 0.00
8:53 pm 20:53 Cloudy 64 17.8 41 5 43 43 SSW 3 6 30.24 1024 10 16 0.00 0.00
9:53 pm 21:53 Cloudy 63 17.2 41 5 45 45 S 6 9 30.24 1024 10 16 0.00 0.00
10:53 pm 22:53 Cloudy 62 16.7 40 4.4 44 44 VRB 3 6 30.23 1024 10 16 0.00 0.00
11:53 pm 23:53 Cloudy 61 16.1 41 5 48 48 S 6 9 30.21 1023 10 16 0.00 0.00

Powered by AerisWeather